Location: *
(52.2743°S, 169.5211°W)
Time: 01:58:23
(UTC+00:00)

Daily predictions for brighter satellites

Satellite Brightness Start Highest point End
(mag) Time Altitude Azimuth Time Altitude Azimuth Time Altitude Azimuth
ATLAS 2AS CENTAUR R/B 3.7 03:40:43 10° WSW 03:47:13 35° S 03:53:55 10° ESE
Meteor 1-26 Rocket 4.4 03:44:05 10° S 03:49:49 62° ESE 03:55:40 10° NNE
ARGOS 3.2 03:45:20 10° SSE 03:50:52 83° ENE 03:56:18 10° NNW
ADEOS Rocket 3.3 03:43:44 10° SSE 03:51:00 72° ENE 03:57:27 10° N
Cosmos 1602 3.3 03:48:08 10° N 03:51:25 82° E 03:54:46 10° SSE
RESURS DK-1 4.3 03:50:44 10° S 03:52:17 12° SSE 03:53:49 10° SE
Meteor 2-3 Rocket 3.8 03:49:32 10° N 03:55:11 69° E 04:00:51 10° SSE
ATLAS 5 CENTAUR R/B 2.9 03:48:30 10° NW 03:55:50 75° SW 04:02:34 10° SE
IRS-1D 3.6 03:51:53 10° SSE 03:56:58 64° ENE 04:02:06 10° N
SL-08 RB Rocket 3.7 03:52:45 10° SSE 03:57:20 71° ENE 04:01:48 10° N
Cosmos 1484 Rocket 3.8 03:55:08 10° SE 03:58:12 24° E 04:01:14 10° NNE
Cosmos 1238 Rocket 4.0 03:54:53 10° SSE 03:58:18 22° ESE 04:01:22 10° ENE
Cosmos 2297 Rocket 3.0 03:53:29 10° SSW 03:58:34 31° SE 04:03:37 10° ENE
Cosmos 2285 Rocket 4.3 03:52:17 10° NNW 03:58:45 76° WSW 04:05:15 10° SSE
Cosmos 2369 Rocket 2.3 03:53:11 10° NNW 03:58:50 85° WSW 04:04:31 10° SSE
Cosmos 2297 3.9 03:53:20 10° NNW 03:59:08 81° WSW 04:04:59 10° SSE
Cosmos 1441 Rocket 3.8 03:56:19 10° NNE 03:59:24 30° E 04:02:30 10° SSE
BREEZE-M DEB (TANK) 4.1 03:58:10 10° W 04:04:49 46° NNW 04:07:28 10° NE
Cosmos 1812 Rocket 4.1 04:00:51 10° S 04:04:58 37° ESE 04:09:01 10° NE
Cosmos-2242 3.0 04:04:26 10° S 04:08:49 90° SE 04:13:10 10° N
USA 32 4.1 04:04:46 10° N 04:10:03 86° W 04:15:24 10° S
USA 306 3.1 04:09:49 10° WSW 04:13:45 67° NNW 04:17:44 10° ENE
Cosmos 1315 Rocket 2.7 04:10:49 10° SSW 04:14:49 81° ESE 04:18:46 10° NNE
Cosmos 1818 3.6 04:12:45 10° SW 04:18:09 63° SE 04:23:32 10° ENE
ADEOS II 4.5 04:15:25 10° SSW 04:18:26 16° SW 04:21:28 10° W
ACS3 Solar Sail 2.2 04:12:44 10° SSE 04:18:52 45° E 04:24:50 10° NNE
MOS 1-B Rocket 4.3 04:15:32 10° SSE 04:20:56 41° E 04:26:20 10° NNE
Cosmos 2221 2.9 04:18:16 10° S 04:22:22 40° ESE 04:26:23 10° NE
CZ-4C R/B 4.0 04:16:13 10° N 04:23:22 30° ENE 04:28:41 14° ESE
CZ-4 R/B 4.0 04:19:20 10° SSE 04:24:05 73° WSW 04:28:44 10° NNW
Cosmos 2227 Rocket 3.1 04:21:54 10° SSW 04:26:45 27° SE 04:31:20 11° E
Cosmos 1898 Rocket 3.5 04:21:31 10° NNW 04:26:52 81° ENE 04:32:17 10° SSE
Cosmos 1356 Rocket 4.1 04:23:43 10° SSW 04:27:52 58° W 04:31:58 10° N
Cosmos 2151 3.8 04:27:26 10° NNE 04:31:00 28° E 04:34:05 13° SE
Cosmos 2263 Rocket 3.5 04:29:48 10° SSW 04:33:56 20° SSE 04:36:14 16° ESE
SKYMED 2 4.0 04:32:14 10° N 04:36:36 68° WNW 04:41:03 10° SSW
Cosmos 372 Rocket 4.1 04:31:41 10° NNW 04:36:51 81° WSW 04:42:08 10° SSE
Cosmos 1939 Rocket 3.8 04:33:14 10° S 04:37:04 47° WSW 04:40:49 10° NW
Cosmos 2112 Rocket 4.1 04:32:28 10° SSW 04:37:54 90° SSW 04:43:17 10° NNE
Cosmos 1825 Rocket 4.5 04:34:07 10° NNE 04:37:58 29° E 04:41:04 14° SE
FengYun 1-2 T 4.4 04:32:28 10° SSE 04:38:15 83° WSW 04:43:55 10° NNW
Cosmos 1607 4.3 04:32:44 10° WNW 04:39:02 65° SW 04:44:46 13° SE
Cosmos 1937 Rocket 3.5 04:34:42 10° NNW 04:39:56 78° ENE 04:45:16 10° SSE
Cosmos 1048 Rocket 4.2 04:35:26 10° SSW 04:40:32 46° ESE 04:45:31 10° NE
SAR-Lupe-4 3.7 04:37:13 11° SSE 04:40:42 55° ENE 04:44:14 10° N
Cosmos 1758 Rocket 3.6 04:38:54 10° N 04:43:24 81° E 04:48:00 10° SSE
USA 234 3.3 04:37:23 10° E 04:44:01 73° SSE 04:50:38 10° WSW
CZ-2C R/B 4.3 04:42:53 10° S 04:47:15 28° WSW 04:51:33 10° WNW
Cosmos 494 Rocket 3.9 04:42:37 10° SSW 04:47:49 78° ESE 04:52:58 10° NNE
Cosmos 1602 Rocket 3.6 04:44:45 10° N 04:49:10 67° E 04:53:41 10° SSE
Cosmos 2219 4.4 04:44:56 10° SSW 04:49:18 22° SSE 04:50:51 20° SE
Cosmos 1697 Rocket 4.3 04:50:45 10° NE 04:53:30 16° ENE 04:53:30 16° ENE
Okean 1-7 Rocket 3.6 04:54:17 10° N 04:58:50 67° E 05:03:27 10° SSE
BREEZE-M DEB (TANK) 4.5 04:55:20 10° W 04:59:08 29° NNW 05:01:18 10° NNE
Cosmos 1656 4.0 04:57:28 10° N 05:02:34 42° ENE 05:05:19 25° SE
Cosmos 1745 Rocket 4.4 04:56:43 10° NNW 05:02:59 66° WSW 05:09:17 10° S
Cosmos 1626 Rocket 4.3 04:58:40 10° NNW 05:03:05 55° WSW 05:07:33 10° S
H-2A R/B 4.5 05:00:53 10° SSW 05:03:54 16° SW 05:06:57 10° W
YAOGAN 6 4.3 05:03:13 10° SW 05:04:08 12° WSW 05:05:03 10° W
Cosmos 2278 Rocket 4.4 05:03:53 10° SW 05:06:54 14° SSW 05:09:56 10° SSE
ARIANE 5 R/B 2.9 05:06:09 18° SSE 05:09:54 45° E 05:14:56 10° N
BREEZE-M DEB (TANK) 3.4 05:07:54 10° NNW 05:09:58 19° NNE 05:09:58 19° NNE
COSMO-SKYMED 1 4.4 05:08:29 10° NNW 05:12:18 32° W 05:16:10 10° SSW
SAR-Lupe-1 4.4 05:12:28 15° S 05:15:30 67° WSW 05:19:07 10° NNW
Okean 1 4.1 05:12:36 10° SSW 05:16:18 50° W 05:19:55 10° N
Meteor 1-20 Rocket 4.3 05:10:56 10° N 05:16:19 51° E 05:20:26 17° SSE
Meteor 1-19 Rocket 4.3 05:11:41 10° SSW 05:17:45 80° ESE 05:23:50 10° NNE
BlueWalker 3 4.1 05:17:53 10° NNE 05:18:59 13° NNE 05:18:59 13° NNE
Cosmos 1709 Rocket 4.3 05:13:47 10° NNW 05:19:58 67° WSW 05:26:10 10° S
Cosmos 2184 Rocket 4.2 05:15:25 10° NNE 05:21:30 50° E 05:27:35 10° SSE
IRAS Rocket 4.4 05:17:53 19° SSE 05:21:50 54° ENE 05:27:21 10° N
Cosmos 1943 Rocket 4.4 05:19:30 10° SW 05:22:16 13° SSW 05:25:01 10° SSE
Meteor 2-4 Rocket 4.0 05:17:02 10° S 05:22:19 41° ESE 05:27:41 10° NE
IGS 5A 3.6 05:24:25 46° E 05:24:27 46° E 05:28:22 10° N
Cosmos 2154 Rocket 4.3 05:18:42 10° NNE 05:24:45 46° E 05:30:51 10° SSE
YAOGAN 11 4.0 05:20:18 10° NNE 05:24:47 73° ESE 05:29:16 10° SSW
Meteor 1-10 Rocket 4.4 05:19:57 10° SSW 05:26:01 84° W 05:31:59 10° N
Nadezhda 3 Rocket 4.0 05:19:56 10° S 05:26:04 55° ESE 05:32:10 10° NNE
SJ-12 3.7 05:30:21 58° E 05:30:32 59° E 05:34:23 10° N
RESURS DK-1 3.0 05:26:56 10° SSW 05:30:05 38° SSE 05:30:05 38° SSE
Cosmos 1076 Rocket 3.6 05:27:00 10° N 05:30:55 49° ENE 05:30:55 49° ENE
Cosmos 1484 Rocket 4.2 05:28:00 10° S 05:31:24 34° WSW 05:34:44 10° NW
Cosmos 1953 Rocket 3.5 05:28:10 10° N 05:32:25 56° E 05:32:51 53° ESE
Cosmos 1238 Rocket 4.1 05:31:19 10° SSW 05:35:20 41° W 05:38:50 10° NNW
Meteor 1-27 Rocket 3.7 05:33:42 10° SSW 05:39:35 84° ESE 05:45:17 10° NNE
ATLAS 5 CENTAUR R/B 3.6 05:33:19 10° W 05:39:53 37° SSW 05:42:56 25° SSE
ATLAS 2AS CENTAUR R/B 3.4 05:33:05 10° SW 05:39:57 41° SSE 05:42:06 34° SE
Thor Agena Rocket 4.2 05:35:50 10° S 05:40:50 54° WSW 05:45:46 10° NW
ERS-1 4.3 05:40:33 38° SSE 05:42:28 67° ENE 05:47:27 10° N
Cosmos 2297 Rocket 2.5 05:37:23 10° SW 05:43:05 68° WNW 05:48:43 10° NNE
SL-08 R/B 3.1 05:38:45 10° NNE 05:43:22 71° ESE 05:48:07 10° SSW
Cosmos 2369 Rocket 4.0 05:39:08 10° W 05:43:41 24° SW 05:47:28 13° SSE
Cosmos 1844 Rocket 4.4 05:40:21 10° SSW 05:43:13 17° SSE 05:43:13 17° SSE
Cosmos 2181 Rocket 4.4 05:38:23 10° SSW 05:44:35 66° W 05:50:50 10° N
Gbstr 26 Del rocket 3.2 05:43:13 10° NW 05:47:00 50° N 05:47:00 50° N
USA 267 3.5 05:47:38 40° E 05:49:36 53° NE 05:56:01 10° NW
Lacrosse 5 rocket 2.5 05:51:58 10° NW 05:53:47 27° NNW 05:53:47 27° NNW
SMAP 3.0 05:56:48 57° SSE 05:57:48 88° ENE 06:02:32 10° NNW
Cosmos 1125 Rocket 4.0 05:54:18 10° N 05:58:13 43° NNE 05:58:13 43° NNE
Cosmos 2360 4.1 05:53:52 10° NNW 05:59:34 74° ENE 06:00:36 59° SE
IRS-P3 4.0 06:00:17 45° SSE 06:02:00 82° ENE 06:07:23 10° NNW
ACS3 Solar Sail 2.9 05:56:12 10° S 06:02:10 43° WSW 06:08:00 10° NW
CZ-2D R/B 4.4 06:06:27 35° WNW 06:06:27 35° WNW 06:08:44 10° NW
Cosmos 2151 4.5 06:03:58 10° NW 06:07:47 34° WSW 06:10:16 18° SSW
CZ-4C R/B 2.8 06:02:48 10° NW 06:11:25 87° NE 06:13:41 50° SE
Cosmos 2227 Rocket 2.2 06:05:43 10° SSW 06:11:28 83° WNW 06:13:12 47° NNE
Meteor 2-13 Rocket 4.3 06:06:32 10° S 06:12:50 86° E 06:19:03 10° N
BREEZE-M DEB (TANK) 3.5 06:10:25 10° W 06:11:59 37° WNW 06:11:59 37° WNW
Cosmos 2263 Rocket 2.4 06:13:20 10° SSW 06:17:55 54° S 06:17:55 54° S
Cosmos 1842 Rocket 4.4 06:19:23 10° SSW 06:23:37 48° W 06:27:48 10° NNW
Cosmos 2074 Rocket 4.4 06:19:11 10° NNW 06:25:26 64° WSW 06:31:49 10° S
USA 234 3.6 06:24:34 37° NNE 06:27:10 60° NW 06:33:45 10° WSW
Cosmos 614 Rocket 4.2 06:26:14 10° SSW 06:31:15 68° W 06:31:15 68° W
Cosmos 2219 3.8 06:28:44 10° SSW 06:32:46 47° SSW 06:32:46 47° SSW
Cosmos 1697 Rocket 3.3 06:31:22 10° NNW 06:35:15 46° NNW 06:35:15 46° NNW
Cosmos 44 4.1 06:32:44 10° NW 06:36:38 50° NW 06:36:38 50° NW
ARIANE 5 R/B 4.0 06:46:27 24° SSW 06:48:51 36° WSW 06:53:36 10° NW
SL-12 R/B(2) 4.3 07:11:30 10° SW 07:19:36 68° SSW 07:19:36 68° SSW
ATLAS 5 CENTAUR R/B 4.0 07:18:36 10° SW 07:22:48 27° SSW 07:22:48 27° SSW
ATLAS 2AS CENTAUR R/B 3.5 07:24:21 10° SW 07:29:32 50° SW 07:29:32 50° SW
USA 267 4.1 07:34:59 47° W 07:34:59 47° W 07:39:28 10° WNW
CZ-4C R/B 4.0 07:52:57 10° W 07:58:41 37° WSW 07:58:41 37° WSW
